| time (UTC) | temp C | wind direction | speed KPH | gust KPH | rain 1hr cm | rain 24hr cm | rain mn cm | humidity % | barometer mb |
| 20260507090040 | 11 | 0 | 0.0 | 0.0 | 0.00 | 0.05 | 0.00 | 77 | 1016.1 |
| 20260507084036 | 11 | 0 | 0.0 | 0.0 | 0.00 | 0.10 | 0.00 | 77 | 1016.1 |
| 20260507083038 | 10 | 0 | 0.0 | 0.0 | 0.00 | 0.15 | 0.00 | 77 | 1016.1 |
| 20260507082035 | 10 | 0 | 0.0 | 0.0 | 0.00 | 0.15 | 0.00 | 79 | 1016.0 |
| 20260507081038 | 10 | 0 | 0.0 | 0.0 | 0.00 | 0.15 | 0.00 | 80 | 1016.0 |
| 20260507075035 | 10 | 0 | 0.0 | 0.0 | 0.00 | 0.18 | 0.00 | 82 | 1015.9 |
| 20260507074038 | 10 | 0 | 0.0 | 0.0 | 0.00 | 0.20 | 0.00 | 84 | 1015.9 |
| 20260507073038 | 10 | 0 | 0.0 | 0.0 | 0.00 | 0.23 | 0.00 | 83 | 1015.8 |
| 20260507072036 | 10 | 0 | 0.0 | 0.0 | 0.00 | 0.23 | 0.00 | 85 | 1015.7 |
| 20260507070037 | 9 | 0 | 0.0 | 0.0 | 0.00 | 0.23 | 0.00 | 89 | 1015.7 |
| 20260507065034 | 8 | 0 | 0.0 | 0.0 | 0.00 | 0.25 | 0.00 | 90 | 1015.8 |
| 20260507064037 | 8 | 0 | 0.0 | 0.0 | 0.00 | 0.28 | 0.00 | 90 | 1015.6 |
| 20260507063034 | 8 | 0 | 0.0 | 0.0 | 0.00 | 0.28 | 0.00 | 91 | 1015.5 |
| 20260507062041 | 8 | 0 | 0.0 | 0.0 | 0.00 | 0.30 | 0.00 | 91 | 1015.5 |
| 20260507061036 | 8 | 0 | 0.0 | 0.0 | 0.00 | 0.30 | 0.00 | 92 | 1015.4 |
| 20260507060037 | 8 | 0 | 0.0 | 0.0 | 0.00 | 0.33 | 0.00 | 91 | 1015.3 |
| 20260507055022 | 8 | 0 | 0.0 | 0.0 | 0.00 | 0.33 | 0.00 | 92 | 1015.3 |
| 20260507053023 | 8 | 0 | 0.0 | 0.0 | 0.00 | 0.33 | 0.00 | 92 | 1015.1 |
| 20260507052036 | 8 | 0 | 0.0 | 0.0 | 0.00 | 0.36 | 0.00 | 91 | 1015.0 |
| 20260507051026 | 8 | 0 | 0.0 | 0.0 | 0.00 | 0.36 | 0.00 | 91 | 1014.9 |
| 20260507050034 | 7 | 0 | 0.0 | 0.0 | 0.00 | 0.41 | 0.00 | 90 | 1014.8 |
| 20260507045036 | 7 | 0 | 0.0 | 0.0 | 0.00 | 0.43 | 0.00 | 91 | 1014.7 |
| 20260507043036 | 7 | 0 | 0.0 | 0.0 | 0.00 | 0.46 | 0.00 | 90 | 1014.5 |
| 20260507042037 | 7 | 0 | 0.0 | 0.0 | 0.00 | 0.48 | 0.00 | 91 | 1014.4 |
| 20260507040037 | 7 | 0 | 0.0 | 0.0 | 0.00 | 0.51 | 0.00 | 92 | 1014.3 |
| 20260507035025 | 7 | 0 | 0.0 | 0.0 | 0.00 | 0.56 | 0.00 | 93 | 1014.3 |
| 20260507034036 | 7 | 0 | 0.0 | 0.0 | 0.00 | 0.58 | 0.00 | 94 | 1014.3 |
| 20260507033022 | 7 | 0 | 0.0 | 0.0 | 0.00 | 0.61 | 0.00 | 93 | 1014.2 |
| 20260507032026 | 7 | 0 | 0.0 | 0.0 | 0.00 | 0.61 | 0.00 | 92 | 1014.1 |
| 20260507031037 | 7 | 0 | 0.0 | 0.0 | 0.00 | 0.61 | 0.00 | 92 | 1014.1 |
| 20260507030024 | 7 | 0 | 0.0 | 0.0 | 0.00 | 0.61 | 0.00 | 92 | 1014.1 |
| 20260507025025 | 7 | 0 | 0.0 | 0.0 | 0.00 | 0.61 | 0.00 | 91 | 1014.0 |
| 20260507023022 | 7 | 0 | 0.0 | 0.0 | 0.00 | 0.64 | 0.00 | 91 | 1014.0 |
| 20260507022023 | 7 | 0 | 0.0 | 0.0 | 0.00 | 0.66 | 0.00 | 92 | 1013.9 |
| 20260507021035 | 7 | 0 | 0.0 | 0.0 | 0.00 | 0.66 | 0.00 | 92 | 1013.8 |
| 20260507020036 | 7 | 0 | 0.0 | 0.0 | 0.00 | 0.69 | 0.00 | 92 | 1013.7 |
| 20260507015034 | 7 | 0 | 0.0 | 0.0 | 0.00 | 0.69 | 0.00 | 92 | 1013.6 |
| 20260507013028 | 8 | 0 | 0.0 | 0.0 | 0.00 | 0.71 | 0.00 | 91 | 1013.7 |
| 20260507012029 | 8 | 0 | 0.0 | 0.0 | 0.00 | 0.74 | 0.00 | 91 | 1013.7 |
| 20260507011023 | 8 | 0 | 0.0 | 0.0 | 0.00 | 0.76 | 0.00 | 91 | 1013.7 |
| 20260507010038 | 7 | 0 | 0.0 | 0.0 | 0.00 | 0.79 | 0.00 | 95 | 1013.6 |
| 20260507005022 | 7 | 0 | 0.0 | 0.0 | 0.00 | 0.79 | 0.00 | 96 | 1013.6 |
| 20260507004037 | 7 | 0 | 0.0 | 0.0 | 0.00 | 0.84 | 0.00 | 96 | 1013.6 |
| 20260507003036 | 7 | 0 | 0.0 | 0.0 | 0.00 | 0.86 | 0.00 | 97 | 1013.5 |
| 20260507002039 | 8 | 0 | 0.0 | 0.0 | 0.00 | 0.86 | 0.00 | 96 | 1013.5 |
| 20260507001021 | 8 | 0 | 0.0 | 0.0 | 0.00 | 0.89 | 0.00 | 97 | 1013.5 |
| 20260507000048 | 7 | 0 | 0.0 | 0.0 | 0.00 | 0.89 | 0.00 | 97 | 1013.4 |
| 20260506235039 | 8 | 0 | 0.0 | 0.0 | 0.00 | 0.91 | 0.00 | 97 | 1013.4 |
| 20260506234039 | 8 | 0 | 0.0 | 0.0 | 0.00 | 0.94 | 0.00 | 97 | 1013.3 |
| 20260506233038 | 8 | 0 | 0.0 | 0.0 | 0.00 | 0.97 | 0.00 | 97 | 1013.2 |
| 20260506232038 | 8 | 0 | 0.0 | 0.0 | 0.00 | 0.99 | 0.00 | 97 | 1013.2 |
| 20260506231036 | 8 | 0 | 0.0 | 0.0 | 0.00 | 1.02 | 0.00 | 97 | 1013.2 |
| 20260506230039 | 8 | 0 | 0.0 | 0.0 | 0.00 | 1.07 | 0.00 | 97 | 1013.1 |
| 20260506225038 | 8 | 0 | 0.0 | 0.0 | 0.00 | 1.09 | 0.00 | 97 | 1013.1 |
| 20260506224038 | 8 | 0 | 0.0 | 0.0 | 0.00 | 1.09 | 0.00 | 97 | 1012.9 |
| 20260506223036 | 8 | 0 | 0.0 | 0.0 | 0.00 | 1.12 | 0.00 | 96 | 1012.9 |
| 20260506221036 | 8 | 0 | 0.0 | 0.0 | 0.00 | 1.14 | 0.00 | 96 | 1012.7 |
| 20260506220047 | 8 | 0 | 0.0 | 0.0 | 0.00 | 1.17 | 0.00 | 95 | 1012.7 |
| 20260506215038 | 8 | 0 | 0.0 | 0.0 | 0.00 | 1.17 | 1.17 | 95 | 1012.5 |
| 20260506213038 | 8 | 0 | 0.0 | 0.0 | 0.00 | 1.22 | 1.17 | 93 | 1012.4 |
| 20260506212040 | 8 | 0 | 0.0 | 0.0 | 0.00 | 1.24 | 1.17 | 93 | 1012.3 |
| 20260506205039 | 7 | 0 | 0.0 | 0.0 | 0.00 | 1.30 | 1.17 | 91 | 1012.0 |
| 20260506204036 | 7 | 0 | 0.0 | 0.0 | 0.00 | 1.32 | 1.17 | 91 | 1012.0 |
| 20260506203039 | 7 | 0 | 0.0 | 0.0 | 0.00 | 1.35 | 1.17 | 90 | 1011.9 |
| 20260506202038 | 8 | 0 | 0.0 | 0.0 | 0.00 | 1.37 | 1.17 | 89 | 1011.8 |
| 20260506201040 | 8 | 0 | 0.0 | 0.0 | 0.00 | 1.37 | 1.17 | 89 | 1011.8 |
| 20260506200039 | 8 | 0 | 0.0 | 0.0 | 0.00 | 1.42 | 1.17 | 88 | 1011.7 |
| 20260506195037 | 8 | 0 | 0.0 | 0.0 | 0.00 | 1.45 | 1.17 | 87 | 1011.5 |
| 20260506194037 | 8 | 0 | 0.0 | 0.0 | 0.00 | 1.45 | 1.17 | 86 | 1011.5 |
| 20260506193037 | 9 | 0 | 0.0 | 0.0 | 0.00 | 1.47 | 1.17 | 84 | 1011.4 |
| 20260506192036 | 9 | 0 | 0.0 | 0.0 | 0.00 | 1.50 | 1.17 | 84 | 1011.3 |
| 20260506190038 | 10 | 0 | 0.0 | 0.0 | 0.00 | 1.52 | 1.17 | 84 | 1011.0 |
| 20260506185038 | 10 | 0 | 0.0 | 0.0 | 0.00 | 1.55 | 1.17 | 83 | 1010.8 |
| 20260506184036 | 10 | 0 | 0.0 | 0.0 | 0.00 | 1.55 | 1.17 | 82 | 1010.8 |
| 20260506183039 | 10 | 0 | 0.0 | 0.0 | 0.00 | 1.57 | 1.17 | 83 | 1010.7 |
| 20260506182038 | 10 | 0 | 0.0 | 0.0 | 0.00 | 1.60 | 1.17 | 82 | 1010.5 |
| 20260506181041 | 11 | 0 | 0.0 | 0.0 | 0.00 | 1.63 | 1.17 | 81 | 1010.4 |
| 20260506180038 | 11 | 0 | 0.0 | 0.0 | 0.00 | 1.63 | 1.17 | 79 | 1010.3 |
| 20260506175038 | 11 | 0 | 0.0 | 0.0 | 0.00 | 1.65 | 1.17 | 81 | 1010.2 |
| 20260506174039 | 11 | 0 | 0.0 | 0.0 | 0.00 | 1.65 | 1.17 | 80 | 1009.9 |
| 20260506173036 | 11 | 0 | 0.0 | 0.0 | 0.00 | 1.68 | 1.17 | 78 | 1009.8 |
| 20260506172039 | 11 | 0 | 0.0 | 0.0 | 0.00 | 1.70 | 1.17 | 80 | 1009.7 |
| 20260506171040 | 11 | 0 | 0.0 | 0.0 | 0.00 | 1.70 | 1.17 | 81 | 1009.7 |
| 20260506170035 | 11 | 0 | 0.0 | 0.0 | 0.00 | 1.73 | 1.17 | 83 | 1009.6 |
| 20260506165037 | 11 | 0 | 0.0 | 0.0 | 0.00 | 1.73 | 1.17 | 83 | 1009.6 |
| 20260506164034 | 11 | 0 | 0.0 | 0.0 | 0.00 | 1.73 | 1.17 | 82 | 1009.6 |
| 20260506163039 | 11 | 0 | 0.0 | 0.0 | 0.00 | 1.73 | 1.17 | 82 | 1009.5 |
| 20260506162037 | 11 | 0 | 0.0 | 0.0 | 0.00 | 1.73 | 1.17 | 83 | 1009.5 |
| 20260506161039 | 12 | 0 | 0.0 | 0.0 | 0.00 | 1.73 | 1.17 | 79 | 1009.4 |
| 20260506160037 | 12 | 0 | 0.0 | 0.0 | 0.00 | 1.73 | 1.17 | 79 | 1009.4 |
| 20260506155036 | 12 | 0 | 0.0 | 0.0 | 0.00 | 1.73 | 1.17 | 80 | 1009.4 |
| 20260506154041 | 12 | 0 | 0.0 | 0.0 | 0.00 | 1.73 | 1.17 | 83 | 1009.3 |
| 20260506153036 | 11 | 0 | 0.0 | 0.0 | 0.00 | 1.73 | 1.17 | 84 | 1009.3 |
| 20260506151039 | 12 | 0 | 0.0 | 0.0 | 0.00 | 1.73 | 1.17 | 84 | 1009.2 |
| 20260506150037 | 12 | 0 | 0.0 | 0.0 | 0.00 | 1.73 | 1.17 | 84 | 1009.2 |
| 20260506145038 | 11 | 0 | 0.0 | 0.0 | 0.00 | 1.73 | 1.17 | 85 | 1009.2 |
| 20260506143035 | 11 | 0 | 0.0 | 0.0 | 0.00 | 1.73 | 1.17 | 88 | 1009.4 |
| 20260506142037 | 11 | 0 | 0.0 | 0.0 | 0.00 | 1.73 | 1.17 | 90 | 1009.4 |
| 20260506141038 | 11 | 0 | 0.0 | 0.0 | 0.00 | 1.73 | 1.17 | 89 | 1009.4 |
| 20260506140040 | 11 | 0 | 0.0 | 0.0 | 0.00 | 1.73 | 1.17 | 90 | 1009.4 |
| 20260506135039 | 11 | 0 | 0.0 | 0.0 | 0.00 | 1.73 | 1.17 | 93 | 1009.4 |
| 20260506134038 | 10 | 0 | 0.0 | 0.0 | 0.00 | 1.73 | 1.17 | 92 | 1009.5 |
| 20260506132039 | 10 | 0 | 0.0 | 0.0 | 0.00 | 1.73 | 1.17 | 91 | 1009.5 |
| 20260506131036 | 10 | 0 | 0.0 | 0.0 | 0.00 | 1.73 | 1.17 | 89 | 1009.4 |
| 20260506130037 | 10 | 0 | 0.0 | 0.0 | 0.00 | 1.73 | 1.17 | 89 | 1009.3 |
| 20260506124037 | 10 | 0 | 0.0 | 0.0 | 0.00 | 1.73 | 1.17 | 90 | 1009.3 |
| 20260506123037 | 10 | 0 | 0.0 | 0.0 | 0.00 | 1.73 | 1.17 | 88 | 1009.1 |
| 20260506122037 | 11 | 0 | 0.0 | 0.0 | 0.00 | 1.73 | 1.17 | 90 | 1009.1 |
| 20260506121035 | 11 | 0 | 0.0 | 0.0 | 0.00 | 1.73 | 1.17 | 92 | 1009.0 |
| 20260506120036 | 10 | 0 | 0.0 | 0.0 | 0.00 | 1.73 | 1.17 | 94 | 1009.1 |
| 20260506115036 | 10 | 0 | 0.0 | 0.0 | 0.00 | 1.73 | 1.17 | 94 | 1009.1 |
| 20260506114037 | 10 | 0 | 0.0 | 0.0 | 0.00 | 1.73 | 1.17 | 93 | 1009.1 |
| 20260506113038 | 10 | 0 | 0.0 | 0.0 | 0.00 | 1.73 | 1.17 | 94 | 1009.0 |
| 20260506111037 | 10 | 0 | 0.0 | 0.0 | 0.00 | 1.73 | 1.17 | 10 | 1009.2 |
| 20260506105037 | 9 | 0 | 0.0 | 0.0 | 0.00 | 1.73 | 1.17 | 10 | 1009.2 |
| 20260506104025 | 8 | 0 | 0.0 | 0.0 | 0.03 | 1.73 | 1.17 | 10 | 1009.2 |
| 20260506103037 | 8 | 0 | 0.0 | 0.0 | 0.03 | 1.73 | 1.17 | 10 | 1009.2 |
| 20260506102037 | 8 | 0 | 0.0 | 0.0 | 0.03 | 1.73 | 1.17 | 10 | 1009.2 |
| 20260506101036 | 8 | 0 | 0.0 | 0.0 | 0.05 | 1.75 | 1.17 | 10 | 1009.1 |
| 20260506100036 | 8 | 0 | 0.0 | 0.0 | 0.05 | 1.75 | 1.17 | 10 | 1008.9 |
| 20260506094034 | 8 | 0 | 0.0 | 0.0 | 0.10 | 1.75 | 1.17 | 10 | 1008.9 |
| 20260506093038 | 8 | 0 | 0.0 | 0.0 | 0.13 | 1.75 | 1.14 | 10 | 1008.7 |
| 20260506092034 | 8 | 0 | 0.0 | 0.0 | 0.15 | 1.75 | 1.14 | 10 | 1008.6 |